Location: Mizzole
(45.4833°N, 11.0500°E)
Time: 22:26:15
(UTC+00:00)

STARLINK-29 - Pass Details

Date: 21 October 2019
Orbit: 437 x 449 km, 53.0° (Epoch: 14 November)

Event Time Altitude Azimuth Distance (km) Brightness Sun altitude
Rises 17:22:26 0° 302° (WNW) 2,433 7.9 -11.5°
Reaches altitude 10° 17:24:35 10° 308° (NW) 1,563 6.7 -11.9°
Maximum altitude 17:28:02 53° 26° (NNE) 550 3.4 -12.5°
Enters shadow 17:30:03 22° 96° (E) 1,016 4.4 -12.8°
